FENGYUN 1C DEB

Satellite information

Favourite Embed

Satellite Type and Status

DEBRISIN ORBIT

Key statistics

Satellite FENGYUN 1C DEB at a glance.

Uptime

9715

Days in orbit

Revolutions

≈ 14.5

Per day

Orbit

SSO

Sun Synchronous Orbit

Inclination

99.0

Latest

Satellite identification and parameters

Extended collection of information and parameters for FENGYUN 1C DEB.

Object identification

Identified? True

Debris? True

Object name: FENGYUN 1C DEB

International designator: 1999-025DFP

Object number (NORAD): 33678

Object ID (CCSDS): 33678

Country: PEOPLES REPUBLIC OF CHINA (PRC)

Current information (Y/N): Y

RCS size: SMALL

Orbital parameters

Period: 99.492 minutes

Inclination: 99.0428 deg

SMA: 7112.467 km

Apoapsis: 880.219 km

Periapsis: 588.444 km

RAAN: 52.4355 deg

Eccentricy: 0.02051151

Argument of periapsis: 236.2193 deg

Mean anomaly: 121.9313 deg

Mean motion: 14.47346139 rev/day

Mean motion (dot): 0.00005405 rev/day2

B* drag term: 0.00114502 1/REarth

Two-line elements (TLE)

Creation date: Dec. 13, 2025, 4:32 a.m.

Reference frame: TEME

Reference center: EARTH

Epoch: Dec. 12, 2025, 9:57 p.m. UTC

TLE line 0: 0 FENGYUN 1C DEB

TLE line 1: 1 33678U 99025DFP 25346.91516179 .00005405 00000-0 11450-2 0 9998

TLE line 2: 2 33678 99.0428 52.4355 0205115 236.2193 121.9313 14.47346139950988

Live tracking on map

Real-time ground track for satellite FENGYUN 1C DEB.

In-orbit conjunctions

A list of the most updated potential collisions computed for object FENGYUN 1C DEB.

Target Orbit TCA Probability of collision Miss distance Type
FENGYUN 1C DEB SSO 2025-06-06 01:16:21 0.0002435531 31.0 (m) DEBRIS
SL-14 R/B LEO 2024-10-05 19:43:22 0.0001067159 882.0 (m) ROCKET BODY

Associated space launch

Chinese polar orbiting meteorological satellite

FENGYUN 1C DEB was lifted into orbit during the mission ‘Long March 4B | Feng Yun 1C’, on board a Long March 4B space rocket.

The launch took place on May 10, 1999, 1:33 a.m. from Launch Complex 7.

For more information about the launch, click the button.

Launch to space Long March 4B | Feng Yun 1C
Long March 4B | Feng Yun 1C

Agency: N/A

Status: Launch Successful

Launch date: May 10, 1999, 1:33 a.m. UTC

Rocket: Long March 4B

Launch pad: Launch Complex 7

Location: Taiyuan Satellite Launch Center, People's Republic of China

...

Latest news about this satellite

There are no fresh news available about this satellite. Check back as we update our databases every day.


Newsletter sign-up

Weekly statistics, charts and insights to help you stay on top of the space industry.